Location: McLaughlin
(0.0000°N, 0.0000°E)
Time: 14:03:32
(UTC+00:00)

Envisat - Pass Details

Date: 23 June 2019
Orbit: 764 x 766 km, 98.1° (Epoch: 19 August)

Event Time Altitude Azimuth Distance (km) Brightness Sun altitude
Rises 19:13:18 0° 180° (S) 3,229 6.0 -16.3°
Reaches altitude 10° 19:15:42 10° 187° (S) 2,301 5.3 -16.8°
Maximum altitude 19:20:29 44° 258° (WSW) 1,056 4.1 -17.9°
Drops below altitude 10° 19:25:17 10° 329° (NNW) 2,293 6.3 -19.0°
Sets 19:27:40 0° 336° (NNW) 3,217 7.0 -19.5°
